EW7144 Weather Reports


time (UTC)temp
C
wind
direction
speed
KPH
gust
KPH
rain 1hr
cm
rain 24hr
cm
rain mn
cm
humidity
%
barometer
mb
20260505022905 16 343 8.0 16.1 0.00 0.03 0.00 71 1031.0
20260505022406 16 334 9.7 16.1 0.00 0.03 0.00 72 1031.0
20260505021905 16 343 8.0 19.3 0.00 0.03 0.00 73 1031.0
20260505021406 16 343 4.8 14.5 0.00 0.03 0.00 72 1031.0
20260505020906 16 342 11.3 20.9 0.00 0.03 0.00 71 1031.1
20260505020406 16 355 8.0 16.1 0.00 0.03 0.00 71 1031.1
20260505015906 16 353 9.7 14.5 0.00 0.03 0.00 71 1031.1
20260505013906 15 331 6.4 14.5 0.00 0.03 0.00 76 1031.3
20260505013405 15 347 6.4 16.1 0.00 0.03 0.00 74 1031.4
20260505012906 16 350 4.8 14.5 0.00 0.03 0.00 74 1031.5
20260505011905 16 342 4.8 16.1 0.00 0.03 0.00 72 1031.6
20260505011407 16 354 4.8 16.1 0.00 0.03 0.00 72 1031.7
20260505010406 15 354 6.4 19.3 0.00 0.03 0.00 74 1031.8
20260505005906 15 338 6.4 16.1 0.00 0.03 0.00 74 1031.8
20260505005406 15 355 4.8 12.9 0.00 0.03 0.00 74 1031.9
20260505004406 15 349 3.2 19.3 0.00 0.03 0.00 75 1032.0
20260505003907 15 338 4.8 14.5 0.00 0.03 0.00 75 1032.1
20260505003405 15 346 3.2 14.5 0.00 0.03 0.00 75 1032.2
20260505002407 15 356 4.8 14.5 0.00 0.03 0.00 74 1032.4
20260505001906 15 353 4.8 9.7 0.00 0.03 0.00 75 1032.5
20260505001405 15 348 6.4 16.1 0.00 0.03 0.00 74 1032.5
20260505000906 15 344 3.2 12.9 0.00 0.03 0.00 75 1032.5
20260505000406 15 354 4.8 14.5 0.00 0.03 0.00 75 1032.6
20260504235906 15 349 3.2 4.8 0.00 0.03 0.00 77 1032.6
20260504235406 15 323 3.2 4.8 0.00 0.03 0.00 76 1032.6
20260504234907 15 352 1.6 4.8 0.00 0.05 0.00 76 1032.7
20260504233407 15 342 1.6 3.2 0.00 0.05 0.00 76 1032.8
20260504232905 15 343 1.6 3.2 0.00 0.05 0.00 77 1032.8
20260504232405 15 357 1.6 3.2 0.00 0.05 0.00 76 1032.9
20260504231907 15 339 1.6 4.8 0.00 0.05 0.00 78 1032.9
20260504231405 14 359 0.0 3.2 0.00 0.05 0.00 79 1032.9
20260504230407 14 354 1.6 4.8 0.00 0.05 0.00 79 1032.9
20260504225905 14 346 1.6 3.2 0.00 0.05 0.00 79 1032.9
20260504225407 14 336 0.0 1.6 0.00 0.05 0.00 80 1032.9
20260504224905 13 340 0.0 1.6 0.00 0.05 0.00 81 1032.9
20260504224404 13 346 0.0 1.6 0.00 0.05 0.00 81 1032.9
20260504223905 13 338 1.6 3.2 0.00 0.05 0.00 81 1032.9
20260504223405 13 242 1.6 3.2 0.00 0.05 0.00 81 1033.0
20260504222405 13 343 0.0 3.2 0.00 0.05 0.00 81 1033.0
20260504221905 13 341 0.0 1.6 0.00 0.05 0.00 82 1033.0
20260504221405 13 211 0.0 1.6 0.00 0.05 0.00 82 1033.0
20260504220907 13 16 0.0 1.6 0.00 0.05 0.00 82 1033.0
20260504220405 13 16 1.6 3.2 0.00 0.05 0.00 82 1033.0
20260504215405 13 16 0.0 1.6 0.00 0.05 0.00 83 1033.1
20260504214907 12 16 0.0 1.6 0.00 0.05 0.00 83 1033.1
20260504214405 12 16 0.0 1.6 0.00 0.05 0.00 83 1033.2
20260504213906 12 16 0.0 0.0 0.00 0.05 0.00 84 1033.2
20260504213407 12 16 0.0 0.0 0.00 0.05 0.00 84 1033.2
20260504212905 12 16 0.0 0.0 0.00 0.05 0.00 84 1033.2
20260504212407 12 16 0.0 0.0 0.00 0.05 0.00 84 1033.2
20260504211905 12 16 0.0 0.0 0.00 0.05 0.00 83 1033.2
20260504211405 12 16 0.0 1.6 0.00 0.05 0.00 84 1033.2
20260504210905 12 16 0.0 1.6 0.00 0.05 0.00 84 1033.3
20260504210405 12 16 0.0 1.6 0.00 0.05 0.00 83 1033.2
20260504205906 12 16 0.0 1.6 0.00 0.05 0.00 83 1033.2
20260504205405 12 16 0.0 1.6 0.00 0.05 0.00 83 1033.1
20260504204407 12 16 0.0 1.6 0.00 0.05 0.00 83 1033.2
20260504203905 12 16 0.0 1.6 0.00 0.05 0.00 83 1033.2
20260504202906 11 16 0.0 1.6 0.00 0.05 0.00 83 1033.3
20260504202406 11 16 0.0 0.0 0.00 0.05 0.00 83 1033.3
20260504201906 11 16 0.0 0.0 0.00 0.05 0.00 83 1033.2
20260504200907 11 16 0.0 1.6 0.00 0.05 0.00 83 1033.1
20260504200406 11 16 0.0 1.6 0.00 0.05 0.00 83 1033.1
20260504195905 11 16 0.0 0.0 0.00 0.05 0.00 83 1033.0
20260504195405 11 16 0.0 0.0 0.00 0.05 0.00 83 1033.0
20260504194906 11 16 0.0 1.6 0.00 0.05 0.00 83 1032.9
20260504193906 11 16 0.0 1.6 0.00 0.05 0.00 84 1032.8
20260504192905 11 16 0.0 1.6 0.00 0.05 0.00 84 1032.7
20260504191906 11 16 0.0 3.2 0.00 0.05 0.00 85 1032.7
20260504191405 11 10 1.6 3.2 0.00 0.05 0.00 85 1032.7
20260504190906 11 343 0.0 1.6 0.00 0.05 0.00 85 1032.7
20260504190405 11 338 1.6 3.2 0.00 0.05 0.00 86 1032.7
20260504185905 11 336 0.0 1.6 0.00 0.05 0.00 86 1032.7
20260504185405 11 335 0.0 1.6 0.00 0.05 0.00 87 1032.6
20260504184905 11 330 0.0 1.6 0.00 0.05 0.00 87 1032.6
20260504184405 11 338 0.0 1.6 0.00 0.05 0.00 87 1032.6
20260504183906 11 337 0.0 1.6 0.00 0.05 0.00 87 1032.6
20260504182906 11 346 0.0 1.6 0.00 0.05 0.00 88 1032.7
20260504182405 11 352 0.0 1.6 0.00 0.05 0.00 88 1032.7
20260504181904 11 355 0.0 3.2 0.00 0.05 0.00 89 1032.7
20260504181405 11 343 0.0 3.2 0.00 0.05 0.00 89 1032.7
20260504180905 10 342 0.0 1.6 0.00 0.05 0.00 90 1032.7
20260504180405 10 349 0.0 4.8 0.00 0.05 0.00 90 1032.7
20260504175905 10 355 1.6 4.8 0.00 0.05 0.00 90 1032.7
20260504175405 10 352 0.0 3.2 0.00 0.05 0.00 90 1032.7
20260504174905 10 334 1.6 4.8 0.00 0.05 0.00 90 1032.8
20260504173905 10 359 0.0 3.2 0.00 0.05 0.00 91 1032.8
20260504173404 10 263 0.0 4.8 0.00 0.05 0.00 91 1032.7
20260504172905 10 300 0.0 3.2 0.00 0.05 0.00 91 1032.8
20260504171904 10 27 0.0 1.6 0.00 0.05 0.00 91 1032.8
20260504171405 10 28 1.6 3.2 0.00 0.05 0.00 91 1032.8
20260504170904 10 358 0.0 1.6 0.00 0.05 0.00 91 1032.8
20260504170405 10 13 0.0 0.0 0.00 0.05 0.00 91 1032.8
20260504160405 10 356 1.6 3.2 0.00 0.05 0.00 90 1032.8
20260504150905 10 12 1.6 3.2 0.00 0.05 0.00 90 1033.4
20260504150404 10 31 1.6 3.2 0.00 0.05 0.00 90 1033.4
20260504140905 9 359 0.0 1.6 0.00 0.05 0.00 89 1033.5
20260504140405 9 359 0.0 1.6 0.00 0.05 0.00 89 1033.4
20260504130404 10 225 0.0 1.6 0.00 0.05 0.00 88 1033.4
20260504110405 10 37 0.0 0.0 0.00 0.05 0.03 88 1033.5
20260504100406 11 37 0.0 1.6 0.00 0.05 0.03 84 1033.1
20260504081904 12 343 1.6 4.8 0.00 0.05 0.03 81 1032.7
20260504081405 12 349 3.2 8.0 0.00 0.05 0.03 81 1032.7
20260504080404 12 349 1.6 4.8 0.00 0.05 0.03 81 1032.7
20260504070404 12 352 4.8 11.3 0.00 0.05 0.03 81 1032.6
20260504050405 15 232 6.4 16.1 0.00 0.08 0.03 77 1031.6
20260504045405 15 299 3.2 14.5 0.00 0.08 0.03 77 1031.6
20260504044906 15 289 4.8 14.5 0.00 0.08 0.03 77 1031.6
20260504044404 15 317 6.4 19.3 0.00 0.08 0.03 77 1031.6
20260504043405 15 328 4.8 14.5 0.00 0.08 0.03 76 1031.5
20260504042905 15 315 6.4 19.3 0.00 0.08 0.03 76 1031.6
20260504042406 15 325 4.8 19.3 0.00 0.08 0.03 76 1031.6
20260504041905 16 312 4.8 19.3 0.00 0.08 0.03 76 1031.6
20260504041406 16 249 4.8 19.3 0.00 0.08 0.03 76 1031.6
20260504040906 16 291 4.8 19.3 0.00 0.08 0.03 76 1031.6
20260504040405 16 345 8.0 19.3 0.00 0.08 0.03 75 1031.6
20260504035906 16 254 6.4 20.9 0.00 0.08 0.03 75 1031.6
20260504035405 16 316 4.8 19.3 0.00 0.08 0.03 75 1031.5
20260504033905 16 339 6.4 19.3 0.00 0.08 0.03 75 1031.7
20260504032906 16 295 8.0 19.3 0.00 0.08 0.03 75 1031.8
20260504032405 16 315 8.0 25.7 0.00 0.08 0.03 74 1031.8
20260504031905 16 328 8.0 19.3 0.00 0.08 0.03 75 1031.8
20260504031405 16 336 8.0 19.3 0.00 0.08 0.03 75 1031.8
20260504030907 16 288 9.7 24.1 0.00 0.08 0.03 75 1031.8
20260504030405 16 326 14.5 25.7 0.00 0.08 0.03 75 1031.9
20260504025406 16 271 6.4 22.5 0.00 0.08 0.03 76 1031.9
20260504024907 16 334 9.7 19.3 0.00 0.08 0.03 75 1031.9
20260504024405 16 307 9.7 27.4 0.00 0.08 0.03 76 1031.9
20260504023905 16 317 14.5 27.4 0.00 0.08 0.03 75 1032.0
20260504023405 16 332 9.7 25.7 0.00 0.08 0.03 75 1032.0